FENGYUN 1C DEB, 41006

Orbit data source: Space-Track

FENGYUN 1C DEB, 41006 is space debris in SSO originally from a launch on Mon, 10 May 1999 UTC launched from the Taiyaun Space Center, China (TSC). Fengyun 1C debris stems from the Chinese weather satellite Fengyun-1C, which was intentionally destroyed by a Chinese anti-satellite missile in 2007. This event dramatically increased the amount of space debris, with thousands of trackable fragments posing hazards to satellites and human spaceflight. The Fengyun 1C debris cloud has become a focal point in discussions about space sustainability and the need for international regulations to prevent the creation of new debris.

Loading next visibility...
Identifier
41006, 1999-025EXL
Orbit
SSO
Last TLE update
1 day ago
Origin
Manufacturer
Unknown
Mission
Spacecraft
Bus & Motor
Unknown
Mass
Unknown
Launch date (UTC)
1999-05-10 (26 years ago)
Launch vehicle
Unknown
Launch site
Taiyaun Space Center, China (TSC)
Object type
Payload
Rocket body
Debris
Shape & HBR
Unknown
Radar Cross Section
Small (<0.1 m²)

Expand to show TLE details & history

TLE from 1 day ago
0 FENGYUN 1C DEB
1 41006U 99025EXL 25183.25181461  .00001626  00000-0  13194-2 0  9998
2 41006 102.3743   2.6517 0190499  37.2997 324.1202 13.84227120552267
Epoch: 2025-07-02T06:02Z
TLE epoch observation values (Epoch: 2025-07-02T06:02:36.782Z)
Latitude
-0.00001°
Longitude
-8.53715°
Altitude
839.48 km
Speed
7.49 km/s
True Right ascension
00h 10m 36s
True Declination
0° 00' 00"
Sunlit
Object was in daylight at epoch
Visualization orbit readout
Latitude
-40.44169°
Longitude
162.03297°
Altitude
1,102.896 km
Speed
7.23 km/s
Apparent Right ascension
08h 46m 46s
Apparent Declination
-50° 19' 20"
Sunlit
Object is in daylight
Visualization observer readout
Local Sidereal Time
17:24:50
Azimuth
236.208° WSW
Elevation
-53.652°
Doppler factor
1
Orbital elements
Apogee altitude
1,085.875 km
Perigee altitude
806.814 km
Semi-major axis
7,324.481 km
Eccentricity
0.01905
Inclination
102.3743°
RAAN
2.6517°
Arg. of periapsis
37.2997°
True anomaly
Unknown
Mean anomaly
324.1202°
Eccentric anomaly
Unknown
Mean motion
3.4624 °/min
Orbital period
103.97 mins
BSTAR
0.0013194
Loading maneuver chart data...
Loading SW <> Apogee altitude chart data...
Loading historical data...
Loading historical data...
Loading historical data...
Loading historical data...
Loading historical data...
Loading historical data...
Loading historical data...

FENGYUN 1C DEB Visibility forecast

Observer location: undefined°, undefined°

Span
Click to sort rows by Start time (UTC) header in descending order
Start Az.
Max El. time (UTC)
Max El. Az.
Max El.
End time (UTC)
End Az.
9 mins2025-07-03 11:39:17.323Z156.165° SSE2025-07-03 11:43:17.323Z98.304° ESE44.64°2025-07-03 11:48:17.323Z343.818° N
9 mins2025-07-04 00:16:17.323Z44.459° NE2025-07-04 00:20:17.323Z98.369° ESE29.581°2025-07-04 00:25:17.323Z161.847° S
9 mins2025-07-04 01:59:17.323Z350.35° N2025-07-04 02:02:17.323Z305.118° NW31.515°2025-07-04 02:08:17.323Z231.273° WSW
|